Location: Marcé
(47.5801°N, 0.3280°W)
Time: 06:18:05
(UTC+01:00)

Envisat - Pass Details

Date: 20 October 2021
Orbit: 764 x 766 km, 98.2° (Epoch: 04 December)

Event Time Altitude Azimuth Distance (km) Brightness Sun altitude
Rises 07:05:41 0° 15° (NNE) 3,245 6.5 -14.5°
Reaches altitude 10° 07:08:01 10° 18° (NNE) 2,314 5.7 -14.1°
Maximum altitude 07:13:07 71° 103° (ESE) 810 3.3 -13.2°
Drops below altitude 10° 07:18:10 10° 187° (S) 2,296 5.4 -12.4°
Sets 07:20:28 0° 190° (S) 3,217 6.2 -12.0°
